Prévision chaque heure sur Domdidier


  Conditions Température Point de rosée PrécipitationProbabilité d'orage Vent Pression UV Index Couverture nuageuse Visibilité
 07:43     16:52   La longueur du jour: 9:09 Aujourd'hui
16:00 6 °
Sensation de: 1.2°
1.5°   0%
2
Max: 8 km/h
1014.0 hPa   80% 6.7 km
17:00 5 °
Sensation de: -0.0°
1.1°   0%
2
Max: 7 km/h
1014.4 hPa   79% 6.9 km
18:00 4 °
Sensation de: 0.2°
0.9°   0%
1
Max: 5 km/h
1015.0 hPa   86% 7.2 km
19:00 3 °
Sensation de: -0.8°
0.6°   0%
1
Max: 5 km/h
1015.6 hPa   69% 7.5 km
20:00 3 °
Sensation de: -1.0°
0.1°   0%
0
Max: 5 km/h
1016.2 hPa   62% 7.7 km
21:00 2 °
Sensation de: -1.8°
-0.4°   0%
0
Max: 5 km/h
1016.6 hPa   53% 7.9 km
22:00 1 °
Sensation de: -2.5°
-1.0°   0%
0
Max: 5 km/h
1017.0 hPa   43% 8.1 km
23:00 1 °
Sensation de: -3.1°
-1.6°   0%
0
Max: 5 km/h
1017.0 hPa   35% 8.2 km
 07:44     16:51   La longueur du jour: 9:07 Demain
00:00 0 °
Sensation de: -5.1°
-2.2°   0%
2
Max: 5 km/h
1017.4 hPa   30% 8.4 km
01:00 -0 °
Sensation de: -5.5°
-2.7°   0%
2
Max: 5 km/h
1017.8 hPa   25% 8.5 km
02:00 -1 °
Sensation de: -5.3°
-3.2°   0%
1
Max: 5 km/h
1018.0 hPa   19% 8.7 km
03:00 -1 °
Sensation de: -5.8°
-3.7°   0%
1
Max: 5 km/h
1018.0 hPa   13% 8.9 km
04:00 -2 °
Sensation de: -6.3°
-4.2°   0%
1
Max: 5 km/h
1018.0 hPa   6% 9.0 km
05:00 -2 °
Sensation de: -6.0°
-4.7°   0%
0
Max: 5 km/h
1018.2 hPa   1% 9.1 km
06:00 -3 °
Sensation de: -6.4°
-5.2°   0%
0
Max: 5 km/h
1018.6 hPa   1% 9.2 km
07:00 -3 °
Sensation de: -6.8°
-5.6°   0%
0
Max: 5 km/h
1019.0 hPa   1% 9.3 km
08:00 -3 °
Sensation de: -7.1°
-5.9°   0%
0
Max: 5 km/h
1019.0 hPa   1% 9.4 km
09:00 -2 °
Sensation de: -5.8°
-4.4°   0%
0
Max: 5 km/h
1019.0 hPa   1% 9.5 km
10:00 0 °
Sensation de: -3.2°
-2.2°   0%
0
Max: 5 km/h
1019.0 hPa   1% 9.4 km
11:00 3 °
Sensation de: -1.0°
-0.5°   0%
1
Max: 5 km/h
1019.0 hPa 1% 9.2 km
12:00 6 °
Sensation de: 1.7°
0.5°   0%
1
Max: 5 km/h
1018.8 hPa 1% 9.0 km
13:00 7 °
Sensation de: 2.8°
0.9°   0%
2
Max: 9 km/h
1018.4 hPa 1% 8.9 km
14:00 8 °
Sensation de: 2.9°
1.0°   0%
3
Max: 11 km/h
1018.0 hPa 1% 8.8 km
15:00 8 °
Sensation de: 2.8°
1.0°   0%
3
Max: 11 km/h
1018.0 hPa   1% 8.8 km
16:00 7 °
Sensation de: 1.4°
1.0°   0%
3
Max: 10 km/h
1018.4 hPa   1% 8.8 km
17:00 5 °
Sensation de: -0.2°
0.7°   0%
2
Max: 7 km/h
1019.0 hPa   1% 8.8 km
18:00 3 °
Sensation de: -1.2°
-0.2°   0%
1
Max: 5 km/h
1019.6 hPa   1% 8.7 km
19:00 2 °
Sensation de: -1.7°
-1.1°   0%
0
Max: 5 km/h
1020.4 hPa   1% 8.7 km
20:00 1 °
Sensation de: -2.6°
-1.8°   0%
0
Max: 5 km/h
1020.8 hPa   1% 8.7 km
21:00 0 °
Sensation de: -3.2°
-2.4°   0%
0
Max: 5 km/h
1021.0 hPa   1% 8.7 km
22:00 0 °
Sensation de: -3.7°
-3.0°   0%
0
Max: 5 km/h
1021.0 hPa   1% 8.8 km
23:00 -1 °
Sensation de: -4.2°
-3.5°   0%
0
Max: 5 km/h
1021.0 hPa   3% 8.9 km
 07:46     16:50   La longueur du jour: 9:04 Vendredi 23 Nov
00:00 -1 °
Sensation de: -5.2°
-3.9°   0%
1
Max: 5 km/h
1021.4 hPa   6% 8.9 km
01:00 -1 °
Sensation de: -4.9°
-4.3°   0%
0
Max: 5 km/h
1021.8 hPa   8% 9.0 km
02:00 -2 °
Sensation de: -5.3°
-4.7°   0%
0
Max: 5 km/h
1022.0 hPa   29% 9.1 km
03:00 -2 °
Sensation de: -5.3°
-4.8°   0%
0
Max: 5 km/h
1022.0 hPa   51% 9.2 km
04:00 -2 °
Sensation de: -5.3°
-4.8°   0%
0
Max: 5 km/h
1021.8 hPa   69% 9.3 km
05:00 -1 °
Sensation de: -5.0°
-4.7°   0%
0
Max: 5 km/h
1021.4 hPa   74% 9.3 km
06:00 -1 °
Sensation de: -4.9°
-4.6°   0%
0
Max: 5 km/h
1021.0 hPa   78% 9.4 km
07:00 -1 °
Sensation de: -4.6°
-4.4°   0%
0
Max: 5 km/h
1021.0 hPa   81% 9.4 km
08:00 -1 °
Sensation de: -4.3°
-4.3°   0%
0
Max: 5 km/h
1021.0 hPa   82% 9.4 km
09:00 1 °
Sensation de: -2.8°
-2.8°   0%
0
Max: 5 km/h
1020.8 hPa   81% 9.3 km
10:00 3 °
Sensation de: -0.8°
-0.8°   0%
0
Max: 5 km/h
1020.4 hPa   81% 9.2 km
11:00 5 °
Sensation de: 1.6°
0.8°   0%
0
Max: 5 km/h
1019.6 hPa 83% 8.9 km
12:00 6 °
Sensation de: 2.7°
1.7°   0%
1
Max: 6 km/h
1018.6 hPa 86% 8.7 km
13:00 8 °
Sensation de: 3.5°
2.3°   0%
2
Max: 10 km/h
1017.4 hPa 88% 8.6 km
14:00 8 °
Sensation de: 4.4°
2.5°   0%
2
Max: 12 km/h
1016.4 hPa 94% 8.5 km
15:00 8 °
Sensation de: 3.5°
3.5° 0.8 mm 0%
2
Max: 10 km/h
1015.8 hPa   99% 6.1 km